This is the latest recevied weather packets stored in our database for station/object HJ3GNC-11. If no packets are shown the sender has not sent any weather packets the latest 10 day(s).
| Time | Temp. | Humidity | Pressure | Rain* | Wind** | Luminosity | Snow |
|---|---|---|---|---|---|---|---|
| 1777693788 | 12.22° C | 92% | 1019 hPa | 0 mm | - | - | - |
| 1777692848 | 11.11° C | 92% | 1019 hPa | 0 mm | - | - | - |
| 1777691903 | 12.78° C | 90% | 1019 hPa | 0 mm | - | - | - |
| 1777690959 | 11.67° C | 90% | 1019 hPa | 0 mm | - | - | - |
| 1777690015 | 12.22° C | 91% | 1019 hPa | 0 mm | - | - | - |
| 1777689065 | 12.22° C | 89% | 1019 hPa | 0 mm | - | - | - |
| 1777688107 | 13.33° C | 85% | 1018 hPa | 0 mm | - | - | - |
| 1777687157 | 13.33° C | 86% | 1018 hPa | 0 mm | - | - | - |
| 1777686215 | 13.33° C | 84% | 1018 hPa | 0 mm | - | - | - |
| 1777685268 | 13.33° C | 77% | 1017 hPa | 0 mm | - | - | - |
| 1777684324 | 13.89° C | 77% | 1017 hPa | 0 mm | - | - | - |
| 1777683365 | 13.89° C | 80% | 1017 hPa | 0 mm | - | - | - |
| 1777682418 | 13.89° C | 78% | 1017 hPa | 0 mm | - | - | - |
| 1777681474 | 13.89° C | 71% | 1015 hPa | 0 mm | - | - | - |
| 1777680526 | 14.44° C | 73% | 1015 hPa | 0 mm | - | - | - |
| 1777679564 | 13.89° C | 76% | 1015 hPa | 0 mm | - | - | - |
| 1777678622 | 14.44° C | 73% | 1014 hPa | 0 mm | - | - | - |
| 1777676675 | 15.56° C | 65% | 1013 hPa | 0 mm | - | - | - |
| 1777675724 | 15° C | 70% | 1013 hPa | 0 mm | - | - | - |
| 1777674742 | 15.56° C | 70% | 1013 hPa | 0 mm | - | - | - |
| 1777673785 | 18.33° C | 65% | 1011 hPa | 0 mm | - | - | - |
| 1777672838 | 17.22° C | 65% | 1011 hPa | 0 mm | - | - | - |
| 1777671890 | 16.11° C | 65% | 1011 hPa | 0 mm | - | - | - |
| 1777670935 | 19.44° C | 62% | 1011 hPa | 0 mm | - | - | - |
| 1777669987 | 18.33° C | 62% | 1011 hPa | 0 mm | - | - | - |
* Rain latest hour (hover to see other rain measurements)
** Current wind speed in m/s (hover to see current wind gust speed)